Location: Round Knob
(37.2473°N, 88.7376°W)
Time: 06:35:21
(UTC+00:00)

Hubble Space Telescope - Pass Details

Date: 18 September 2021
Orbit: 535 x 538 km, 28.5° (Epoch: 20 October)

Event Time Altitude Azimuth Distance (km) Brightness Sun altitude
Rises 01:37:00 0° 255° (WSW) 2,671 5.3 -20.0°
Reaches altitude 10° 01:40:02 10° 232° (SW) 1,780 3.8 -20.5°
Maximum altitude 01:42:26 15° 196° (SSW) 1,484 3.0 -21.0°
Enters shadow 01:42:47 15° 190° (S) 1,491 2.9 -21.0°
